Location: Dąbrówka
(52.2799°N, 15.8070°E)
Time: 10:29:23
(UTC+01:00)

ISS - Pass Details

Date: 28 January 2019
Orbit: 403 x 411 km, 51.6° (Epoch: 16 February)

Event Time Altitude Azimuth Distance (km) Brightness Sun altitude
Rises 19:07:54 0° 261° (W) 2,336 1.4 -23.1°
Reaches altitude 10° 19:09:59 10° 260° (W) 1,477 0.1 -23.4°
Enters shadow 19:12:13 40° 253° (WSW) 626 -2.5 -23.7°
